Regional Weather Roundup
Issued by NWS

Home | Current Version | Previous Version | Graphics & Text | Print | Product List | Glossary On
Versions: 1 2 3 4 5 6 7 8 9 10 11 12 13 14 15 16 17 18 19 20 21 22 23 24 25 26 27 28 29 30 31 32 33 34 35 36 37 38 39 40 41 42 43 44 45 46 47 48 49 50
000
ASUS43 KDMX 251703
RWRIA

WEATHER ROUNDUP FOR IOWA
NATIONAL WEATHER SERVICE DES MOINES IA
1200 PM CDT SUN SEP 25 2016

NOTE: "FAIR" INDICATES FEW OR NO CLOUDS BELOW 12,000 FEET WITH NO
SIGNIFICANT WEATHER AND/OR OBSTRUCTIONS TO VISIBILITY.

* - THESE STATIONS ARE NOT NWS STATIONS...THUS NOT UNDER NWS
QUALITY CONTROL.  THEY ALSO DO NOT REPORT WEATHER SUCH
AS PRECIPITATION OR FOG.

IAZ001>003-012>014-020>022-031>034-043>046-251800-
   NORTHWEST IOWA

CITY           SKY/WX    TMP DP  RH WIND       PRES   REMARKS
CARROLL *      CLOUDY    64  50  59 W16G24    30.08S
CHEROKEE *     CLOUDY    62  49  63 W16G29    30.08R
DENISON *      CLOUDY    64  50  59 W16G24    30.08S
LE MARS *      CLOUDY    61  48  63 NW23G29   30.09S
ORANGE CITY *  CLOUDY    61  50  67 W24G32    30.07R
SHELDON *      CLOUDY    61  50  67 W22       30.03S
SIOUX CITY     CLOUDY    65  49  56 NW22G30   30.09R
SPENCER        CLOUDY    63  49  60 W20G31    30.03R
STORM LAKE *   MOSUNNY   63  48  59 W14G26    30.07S
$$

IAZ055>058-069>071-079>083-090>094-251800-
   SOUTHWEST IOWA

CITY           SKY/WX    TMP DP  RH WIND       PRES   REMARKS
ATLANTIC *     CLOUDY    61  52  72 W12       30.12S
AUDUBON *      CLOUDY    61  52  72 NW7       30.11S
CLARINDA *       N/A     66  52  59 MISG      30.15F
COUNCIL BLFS *   N/A     63  52  67 W10       30.14S
CRESTON *      PTSUNNY   63  52  67 NW13G20   30.13S
HARLAN  *      CLOUDY    63  52  67 W13       30.15S
LAMONI         CLOUDY    63  58  83 W10       30.12R
RED OAK *      CLOUDY    63  50  63 NW10G17   30.14S
SHENANDOAH *   CLOUDY    63  52  67 NW8       30.15F
$$

IAZ047>049-059>061-072>074-084-251800-
   CENTRAL IOWA

CITY           SKY/WX    TMP DP  RH WIND       PRES   REMARKS
AMES           MOSUNNY   66  55  67 NW15      30.05F
ANKENY *         N/A    N/A N/A N/A MISG        N/A
BOONE *        CLOUDY    63  52  67 W10G20    30.06S
CHARITON *       N/A     64  55  72 W8        30.09S
DES MOINES     CLOUDY    66  55  67 NW9       30.07S
GRINNELL*      CLOUDY    62  57  83 W12G17    30.05S
KNOXVILLE *    CLOUDY    63  54  72 W10       30.06S
MARSHALLTOWN   CLOUDY    66  54  65 W13       30.03S
NEWTON *       CLOUDY    63  55  77 W7        30.05S
PELLA *        CLOUDY    64  55  71 W9        30.08R
PERRY *          N/A     64  53  67 W12G17    30.08S
$$

IAZ004>006-015-016-023>025-035-036-251800-
   NORTH CENTRAL IOWA

CITY           SKY/WX    TMP DP  RH WIND       PRES   REMARKS
ALGONA *       CLOUDY    64  52  63 W17G28    30.03R
CLARION *      CLOUDY    64  54  68 W13G21    30.03S
ESTHERVILLE    CLOUDY    62  50  64 W21G29    30.02R
FORT DODGE *   CLOUDY    63  54  72 W14G20    30.05S
MASON CITY     CLOUDY    63  52  67 W18G24    30.02R
FOREST CITY *    N/A     61  52  72 W9        30.01S
WEBSTER CITY * CLOUDY    63  52  67 W14G22    30.03S
IOWA FALLS *     N/A     67  54  64 W17       30.05R
$$

IAZ007>011-017>019-026>030-037>042-050>054-066-251800-
   NORTHEAST IOWA

CITY           SKY/WX    TMP DP  RH WIND       PRES   REMARKS
CEDAR RAPIDS   CLOUDY    75  69  81 W17       30.00R
CHARLES CITY * CLOUDY    68  54  60 W10       30.00S
CLINTON *      PTSUNNY   80  70  71 SW13      29.99F HX  83
DECORAH *      CLOUDY    70  70 100 W8G15     29.96R
DUBUQUE        CLOUDY    77  67  71 SW14      29.98F
MONTICELLO *   CLOUDY    77  68  73 W12       29.98R
OELWEIN *      CLOUDY    68  64  88 W15G24    30.00R
WATERLOO       CLOUDY    68  61  78 W10       29.99S
$$

IAZ064-065-067-068-078-251800-
   EAST CENTRAL IOWA

CITY           SKY/WX    TMP DP  RH WIND       PRES   REMARKS
DAVENPORT      PTSUNNY   81  68  64 SW8       29.99F HX  84
IOWA CITY      PTSUNNY   81  67  62 W15       30.00F HX  83
MT. PLEASANT * CLOUDY    83  67  57 W9G17     30.02F HX  85
MUSCATINE *    CLOUDY    82  66  57 W13       30.00R HX  85
QUAD CITIES    PTSUNNY   83  70  64 W13       29.98F HX  87
$$

IAZ062-063-075>077-085>089-095>099-251800-
   SOUTHEAST IOWA

CITY           SKY/WX    TMP DP  RH WIND       PRES   REMARKS
BURLINGTON     MOSUNNY   84  66  54 W12       30.01F HX  86
FAIRFIELD *    CLOUDY    77  64  65 W18       30.03R
FORT MADISON *   N/A     82  66  57 W8        30.03S HX  85
KEOKUK *       MOSUNNY   82  68  61 SW14      30.02S HX  85
OSKALOOSA *    CLOUDY    65  62  89 W16       30.06R
OTTUMWA        LGT RAIN  66  60  81 W16G24    30.06R
WASHINGTON *     N/A    N/A N/A N/A MISG        N/A
$$

ABBREVIATIONS USED IN REMARKS
   TC - TEMPERATURES IN CELSIUS
  WCI - WIND CHILL INDEX
   HX - HEAT INDEX
  VSB - VISIBILITY
$$





USA.gov is the U.S. government's official web portal to all federal, state and local government web resources and services.